Location: Unspecified
(47.2333°N, 39.7000°E)
Time: 19:04:38
(UTC+00:00)

ISS - Pass Details

Date: 11 March 2021
Orbit: 418 x 422 km, 51.6° (Epoch: 12 April)

Event Time Altitude Azimuth Distance (km) Brightness Sun altitude
Exits shadow 00:54:49 15° 98° (E) 1,244 -0.8 -28.3°
Drops below altitude 10° 00:55:27 10° 100° (E) 1,496 -0.4 -28.3°
Sets 00:57:34 0° 104° (ESE) 2,358 0.7 -27.9°
